DMSP 5D-2 F13 DEB, 40677

Orbit data source: Space-Track

DMSP 5D-2 F13 DEB, 40677 is space debris in SSO originally from a launch on Fri, 24 Mar 1995 UTC launched from the Air Force Western Test Range (AFWTR). Debris objects in space refer to the collection of defunct objects orbiting the Earth. Examples of debris include non-operational satellites, rocket bodies, and fragments generated from explosions, collisions, or faulty payload assembly.

Loading next visibility...
Identifier
40677, 1995-015FR
Orbit
SSO
Country
Flag of USUS
Related business
Manufacturer
Unknown
Mission
Spacecraft
Bus & Motor
Unknown
Mass
Unknown
Launch date (UTC)
1995-03-24 (31 years ago)
Launch vehicle
Unknown
Launch site
Air Force Western Test Range (AFWTR)
Object type
Payload
Rocket body
Debris
Shape & HBR
Unknown shape, 0.1 m
Radar Cross Section
Small (<0.1 m²)

Expand to show TLE details & history
Last TLE update: 2 weeks ago

TLE from 2 weeks ago
0 DMSP 5D-2 F13 DEB
1 40677U 95015FR  26242.77246854  .00000365  00000-0  16170-3 0  9995
2 40677  98.5892 258.4264 0048908  47.5307 312.9993 14.28191427591070
Epoch: 2026-08-30T18:32Z
TLE epoch observation values (Epoch: 2026-08-30T18:32:21.281Z)
Latitude
-0.00002°
Longitude
1.37448°
Altitude
776.865 km
Speed
7.478 km/s
True Right ascension
17h 13m 42s
True Declination
0° 00' 00"
Sunlit
Object was in daylight at epoch
Visualization orbit readout
Latitude
Unknown
Longitude
Unknown
Altitude
Unknown
Speed
Unknown
Apparent Right ascension
Unknown
Apparent Declination
Unknown
Sunlit
N/A
Visualization observer readout
Local Sidereal Time
21:57:02
Azimuth
Unknown
Elevation
Unknown
Doppler factor
Unknown
Orbital elements
Apogee altitude
830.006 km
Perigee altitude
759.842 km
Semi-major axis
7,173.061 km
Eccentricity
0.00489
Inclination
98.5892°
RAAN
258.4264°
Arg. of periapsis
47.5307°
True anomaly
312.5877°
Mean anomaly
312.9993°
Eccentric anomaly
312.79367°
Mean motion
3.57262 °/min
Orbital period
100.77 mins
BSTAR
0.0001617
Loading maneuver chart data...
Computing Atmospheric mass density...

Documentation

Showing up to 5 results
|